Weather History for Opa Locka, FL

Change the Weather History Date:

Monday, March 4, 2013

  Actual Average Record
Temperature  
Mean Temperature 58 °F -  
Max Temperature 71 °F 79 °F 88 °F (2003)
Min Temperature 45 °F 62 °F 44 °F (1960)
Degree Days  
Heating Degree Days 7    
Growing Degree Days 8 (Base 50)    
Moisture  
Dew Point 37 °F    
Average Humidity 52    
Maximum Humidity 74    
Minimum Humidity 23    
Precipitation  
Precipitation 0.00 in - - ()
Sea Level Pressure  
Sea Level Pressure 30.18 in    
Wind  
Wind Speed 8 mph (North)    
Max Wind Speed 13 mph    
Max Gust Speed -    
Visibility 10 miles    
Events      
Averages and records for this station are not official NWS values.
T = Trace of Precipitation, MM = Missing Value Source: NWS Daily Summary

Daily Weather History Graph

Daily Weather History Graph

Search for Another Location

Airport:

Trip Planner

Search our weather history database for the weather conditions in past years. The results will help you decide how hot, cold, wet, or windy it might be!

Date:

Astronomy

Mar. 04, 2013 Rise Set
Actual Time 6:41 AM EST 6:24 PM EST
Civil Twilight 6:18 AM EST 6:47 PM EST
Nautical Twilight 5:51 AM EST 7:14 PM EST
Astronomical Twilight 5:24 AM EST 7:41 PM EST
Moon 12:25 AM EST (3/4) 11:29 AM EST (3/4)
Length of Visible Light 12h 29m
Length of Day
11h 43m
Waning Gibbous, 52% of the Moon is Illuminated
Mar 4
Waning Gibbous
Mar 4
Last Quarter
Mar 11
New
Mar 19
First Quarter
Mar 27
Full

Hourly Weather History & Observations

Time (EST) Temp. Windchill Dew Point Humidity Pressure Visibility Wind Dir Wind Speed Gust Speed Precip Events Conditions
12:53 AM 50.0 °F - 39.0 °F 66% 30.16 in 10.0 mi NW 11.5 mph - N/A   Clear
1:53 AM 48.9 °F - 39.0 °F 69% 30.16 in 10.0 mi NW 9.2 mph - N/A   Clear
2:53 AM 48.0 °F - 39.0 °F 71% 30.14 in 10.0 mi NNW 11.5 mph - N/A   Clear
3:53 AM 46.9 °F - 37.9 °F 71% 30.14 in 10.0 mi NNW 8.1 mph - N/A   Clear
4:53 AM 46.0 °F 41.4 °F 37.9 °F 73% 30.17 in 10.0 mi North 9.2 mph - N/A   Clear
5:53 AM 45.0 °F 41.2 °F 37.0 °F 74% 30.19 in 10.0 mi NNW 6.9 mph - N/A   Clear
6:53 AM 45.0 °F 41.2 °F 36.0 °F 71% 30.20 in 10.0 mi North 6.9 mph - N/A   Clear
7:53 AM 48.9 °F - 36.0 °F 61% 30.22 in 10.0 mi North 6.9 mph - N/A   Clear
8:53 AM 53.1 °F - 36.0 °F 52% 30.23 in 10.0 mi North 10.4 mph - N/A   Clear
9:53 AM 57.0 °F - 36.0 °F 45% 30.23 in 10.0 mi NNE 12.7 mph - N/A   Clear
10:53 AM 59.0 °F - 35.1 °F 41% 30.23 in 10.0 mi NNE 8.1 mph - N/A   Clear
11:53 AM 62.1 °F - 34.0 °F 35% 30.22 in 10.0 mi Variable 6.9 mph - N/A   Clear
12:53 PM 64.9 °F - 32.0 °F 29% 30.18 in 10.0 mi North 8.1 mph - N/A   Clear
1:53 PM 68.0 °F - 32.0 °F 26% 30.17 in 10.0 mi Variable 5.8 mph - N/A   Clear
2:53 PM 69.1 °F - 30.9 °F 24% 30.15 in 10.0 mi NNW 6.9 mph - N/A   Clear
3:53 PM 71.1 °F - 30.9 °F 23% 30.14 in 10.0 mi NNE 4.6 mph - N/A   Clear
4:53 PM 69.1 °F - 35.1 °F 29% 30.14 in 10.0 mi NE 5.8 mph - N/A   Clear
5:53 PM 64.9 °F - 37.9 °F 37% 30.15 in 10.0 mi East 9.2 mph - N/A   Clear
6:53 PM 62.1 °F - 42.1 °F 48% 30.17 in 10.0 mi ENE 6.9 mph - N/A   Clear
7:53 PM 61.0 °F - 43.0 °F 52% 30.18 in 10.0 mi NE 3.5 mph - N/A   Clear
8:53 PM 60.1 °F - 43.0 °F 53% 30.19 in 10.0 mi Calm Calm - N/A   Clear
9:53 PM 57.0 °F - 42.1 °F 57% 30.20 in 10.0 mi Calm Calm - N/A   Clear
10:53 PM 54.0 °F - 43.0 °F 66% 30.20 in 10.0 mi Calm Calm - N/A   Clear
11:53 PM 54.0 °F - 45.0 °F 72% 30.19 in 10.0 mi WNW 5.8 mph - N/A   Clear